Wind_Speed
18 19 20 20 20 20 21 22 22 22 23 24 24 23 23 23 22 21 19 19 18 18 18 18 18 17 16 15 15 16 16 16 17 17 17 17 18 18 18 18 18 19 18 17
19 20 21 21 21 21 21 21 22 23 23 24 24 23 23 23 22 20 20 20 19 19 18 17 17 16 15 15 15 16 15 16 16 16 16 17 17 17 17 17 17 17 17 17
20 20 21 22 21 21 22 22 22 23 23 23 23 22 22 22 21 20 20 20 20 19 18 17 16 16 15 15 15 15 14 15 15 16 16 16 16 16 17 17 16 16 16 17
21 21 22 22 23 23 23 23 23 23 23 22 22 22 21 21 19 20 20 20 19 19 18 17 16 15 15 14 14 13 13 14 15 15 15 15 15 15 15 16 16 16 17 18
23 23 24 24 24 25 25 24 24 23 22 21 20 20 20 20 20 20 20 19 19 19 18 17 15 14 14 13 13 12 12 13 14 14 14 14 14 14 14 15 16 16 17 17
24 24 25 25 25 25 25 25 24 23 22 21 20 20 20 20 20 19 19 18 18 18 16 14 13 13 13 11 11 11 12 12 13 13 13 13 13 14 14 16 17 17 17 17
24 25 25 25 25 25 24 24 24 23 22 22 21 21 20 19 19 18 17 16 16 15 13 13 11 11 11 10 10 10 11 11 12 12 12 12 13 13 14 16 16 16 17 17
26 25 26 26 26 26 25 25 24 22 22 21 20 20 18 18 17 16 15 13 13 13 12 12 11 10 9 8 8 9 10 10 11 12 12 12 13 13 14 15 15 16 17 17
26 25 26 26 26 26 25 24 23 22 21 20 19 17 16 15 14 13 12 11 11 11 11 11 10 8 7 7 8 8 9 10 11 11 11 11 12 13 13 14 15 16 17 17
27 25 25 25 25 24 23 22 21 20 19 18 17 16 15 14 13 12 11 10 10 10 10 8 7 6 5 5 6 6 7 9 10 10 11 11 12 12 13 14 15 16 17 17
27 25 24 23 23 22 21 20 19 17 17 16 15 14 13 12 12 10 9 9 8 8 7 6 5 4 4 4 5 6 6 8 9 10 11 11 11 12 13 14 15 17 18 18
25 25 24 23 21 20 19 18 16 15 15 14 13 12 11 10 9 9 8 7 7 6 5 4 4 3 3 3 4 5 6 7 8 9 11 11 11 12 13 15 16 18 19 19
24 24 23 21 20 18 17 16 15 15 15 14 13 12 10 9 8 7 6 6 5 5 4 3 3 3 3 2 3 5 6 7 8 9 10 11 11 12 14 15 17 19 20 20
23 23 21 20 19 18 16 15 14 14 14 13 11 10 9 8 7 6 5 5 5 4 4 3 3 3 2 2 3 4 5 7 8 9 10 11 12 13 15 16 17 19 20 21
22 22 20 19 18 16 15 14 13 12 11 10 9 9 8 6 6 5 5 5 4 4 3 3 3 2 1 2 3 4 5 6 8 9 10 11 13 14 15 17 18 20 21 22
21 20 19 18 16 15 14 13 12 10 9 8 9 8 8 6 6 6 5 5 4 4 4 3 3 2 1 1 2 3 5 6 8 9 10 12 13 15 16 18 19 20 22 23
21 19 18 17 15 14 12 12 11 10 9 8 8 8 7 7 7 7 6 6 5 5 4 4 3 2 1 1 2 3 5 6 8 10 11 13 14 15 17 18 20 21 23 25
20 19 18 16 15 14 12 11 11 10 10 9 8 7 7 7 7 8 7 7 6 5 4 4 4 3 1 1 2 3 5 6 8 10 11 13 14 16 17 19 20 22 24 26
18 17 16 15 14 14 13 12 10 9 9 9 8 8 8 8 8 8 8 7 6 6 5 5 4 3 1 1 2 3 5 6 8 10 12 13 15 16 18 19 21 22 25 26
17 16 15 14 14 13 12 11 10 10 9 9 8 9 9 9 9 9 9 8 6 6 5 5 4 3 1 2 3 4 5 6 8 9 11 13 15 17 18 20 22 24 26 27
17 16 15 14 14 13 12 11 11 10 10 9 10 10 10 10 10 10 9 8 7 6 6 5 4 2 2 1 3 4 6 7 8 10 11 13 15 17 19 21 23 24 26 28
17 17 16 15 15 13 12 12 11 11 11 10 10 11 11 11 11 11 10 8 7 7 6 6 4 3 1 1 3 5 6 7 8 10 12 14 16 17 19 22 24 25 27 28
17 17 16 16 15 14 13 12 12 12 11 11 11 12 12 12 11 11 10 8 7 7 7 6 5 3 1 1 3 5 6 7 9 11 12 14 16 18 20 22 24 26 27 28
17 16 16 16 15 14 14 13 13 12 12 12 12 12 12 12 12 11 10 9 8 8 7 5 4 3 2 1 3 5 6 8 10 11 13 15 16 19 21 23 25 26 27 29
18 17 17 16 16 15 14 14 14 14 14 14 13 13 13 12 11 11 10 9 9 8 7 5 4 3 2 1 3 5 7 8 10 12 13 15 17 19 22 23 25 27 28 29
18 18 18 17 16 16 16 16 16 15 15 15 15 15 14 13 12 11 10 10 9 8 7 5 4 3 2 2 3 5 7 9 10 12 14 16 18 20 22 24 26 27 28 29
20 19 19 18 17 17 17 18 17 17 17 17 16 15 14 14 13 12 11 10 9 8 7 5 4 3 2 2 4 6 7 9 11 13 15 17 19 21 23 25 26 28 29 30
Wind_Direction
296 295 294 295 294 295 294 293 293 297 297 297 298 297 295 295 293 293 292 292 291 292 294 293 288 284 287 290 293 295 296 299 302 304 306 308 312 315 316 316 319 321 321 321
298 297 296 296 296 297 296 294 295 297 298 299 299 298 296 294 292 291 290 290 288 288 288 290 290 286 288 290 293 297 298 298 302 304 307 311 314 316 319 321 324 325 324 323
301 300 300 301 301 299 298 297 297 298 297 297 298 298 296 295 292 288 288 286 285 286 289 291 289 287 286 289 292 299 298 301 305 308 310 313 316 317 320 323 325 326 326 325
306 305 304 305 302 298 298 299 298 298 296 295 296 297 296 295 293 289 287 287 287 286 286 289 289 288 288 288 295 299 301 305 308 310 314 316 317 319 321 324 327 328 327 326
305 305 304 304 304 301 299 299 299 297 296 295 297 297 297 295 294 291 286 287 288 290 286 284 286 288 291 291 296 299 306 309 312 315 318 318 320 323 326 328 330 329 328 328
304 303 304 303 303 302 300 299 299 298 296 296 297 297 296 294 293 292 288 286 288 290 287 280 283 288 290 294 301 303 309 313 316 320 321 322 323 324 328 331 332 333 332 332
303 303 303 303 304 302 300 300 299 296 295 295 297 298 296 295 294 291 289 286 285 286 282 277 281 284 286 294 298 306 312 316 320 323 324 325 325 326 328 331 333 335 335 334
303 303 302 302 302 301 298 297 296 293 292 293 294 294 295 295 293 290 290 287 283 279 276 275 276 278 281 292 303 310 313 318 325 326 326 326 328 330 330 332 333 332 332 333
299 300 299 300 300 300 298 296 296 294 291 290 292 296 296 295 291 290 293 287 279 273 271 271 270 274 276 290 307 312 313 320 327 331 331 331 333 334 333 334 335 335 335 335
298 299 298 297 298 298 296 295 293 292 291 292 293 297 296 291 286 285 287 282 277 271 271 270 269 266 273 294 308 316 319 326 333 336 337 336 337 338 338 339 339 339 341 340
296 296 294 294 295 295 294 293 293 293 293 294 295 295 295 287 280 276 278 277 273 269 267 268 268 273 281 294 310 324 331 337 341 343 342 339 340 343 345 346 346 345 345 344
294 295 296 296 294 294 292 292 292 293 293 292 290 292 291 283 277 273 268 259 259 258 258 265 267 271 273 291 309 322 330 339 345 349 348 347 346 348 350 351 351 349 348 348
295 295 295 294 293 291 289 289 290 291 292 288 287 286 281 276 272 263 245 236 237 241 244 244 246 259 272 291 318 327 335 344 351 352 353 354 354 352 352 352 352 351 350 349
294 296 293 290 290 288 286 285 288 291 290 287 283 277 272 271 263 254 230 222 226 231 228 224 229 244 272 296 321 337 346 350 351 353 357 358 356 353 352 351 350 350 350 349
292 292 290 287 287 286 283 283 285 288 285 280 274 269 267 265 250 230 222 218 217 215 208 209 216 222 271 323 331 348 355 356 356 358 358 357 356 354 352 350 348 349 349 349
285 284 284 284 283 280 280 280 282 281 278 273 264 260 258 250 228 209 203 196 188 182 176 174 179 184 181 7 353 352 356 358 360 359 358 356 356 355 354 352 351 349 349 349
279 277 277 275 273 271 272 274 277 276 272 265 257 249 241 227 211 199 193 188 182 174 165 155 159 163 146 37 357 353 355 357 358 358 357 356 356 355 354 353 352 352 351 350
277 275 270 266 261 259 262 268 270 264 258 256 250 235 218 207 197 191 188 186 182 177 170 159 158 160 144 36 3 357 353 352 356 359 359 359 358 357 356 355 353 353 352 351
274 270 264 257 252 252 255 256 257 253 250 249 236 217 202 196 193 191 187 184 183 182 177 167 167 162 148 13 11 8 360 357 357 359 359 359 358 358 357 356 355 354 353 352
266 260 253 248 248 250 247 244 245 245 243 235 223 211 202 196 192 189 186 184 186 185 180 176 171 155 111 51 32 13 3 359 359 360 360 360 359 359 359 357 356 355 354 353
256 250 244 242 245 243 237 235 237 236 231 222 214 208 199 192 188 185 182 183 185 181 172 170 164 145 111 57 22 12 6 2 1 360 359 358 358 357 356 356 355 355 354 353
248 243 241 242 239 232 229 230 231 226 218 212 208 201 194 189 187 185 183 183 181 173 167 166 161 144 113 45 17 11 7 4 1 359 358 356 355 355 354 355 355 355 354 353
241 238 237 235 230 226 224 224 221 216 210 207 202 196 192 190 187 185 185 184 182 175 174 172 168 166 165 19 4 3 2 1 360 358 356 355 355 355 355 355 355 355 355 355
236 235 231 226 226 222 218 215 213 208 204 200 196 193 190 188 187 187 189 191 188 185 184 183 184 192 216 317 352 359 359 359 358 357 356 355 355 355 355 355 355 356 356 356
233 229 222 220 220 216 212 210 206 202 199 196 194 191 189 187 188 191 192 192 190 189 189 191 198 207 228 305 342 350 354 355 354 354 354 354 355 355 355 355 355 355 355 356
226 221 217 216 213 209 206 203 200 200 198 194 192 190 189 189 188 189 189 189 188 189 189 190 194 202 233 306 337 347 351 351 350 351 353 354 354 355 355 354 354 354 354 354
216 213 211 211 209 204 201 198 196 196 195 192 190 190 189 188 188 188 188 187 187 187 189 194 200 214 253 312 336 342 345 347 348 350 351 352 353 354 355 354 353 353 353 352
Height
5819 5817 5815 5814 5813 5811 5809 5807 5805 5803 5801 5798 5796 5794 5792 5789 5787 5785 5784 5782 5781 5779 5778 5776 5775 5773 5772 5770 5769 5767 5765 5763 5761 5759 5756 5754 5751 5748 5745 5742 5739 5735 5731 5728
5815 5813 5810 5809 5807 5805 5804 5801 5799 5797 5795 5792 5789 5787 5785 5783 5781 5779 5778 5776 5775 5774 5772 5771 5770 5769 5768 5766 5765 5763 5760 5759 5757 5755 5752 5750 5747 5744 5741 5738 5735 5731 5728 5725
5810 5808 5805 5803 5802 5800 5798 5795 5794 5791 5789 5786 5784 5781 5779 5777 5775 5773 5772 5770 5769 5768 5767 5766 5765 5764 5763 5762 5761 5758 5756 5755 5753 5751 5748 5746 5743 5740 5738 5735 5731 5728 5725 5721
5804 5803 5800 5800 5796 5794 5791 5789 5787 5785 5782 5780 5778 5776 5773 5771 5769 5768 5766 5765 5764 5763 5762 5761 5760 5760 5759 5758 5756 5755 5753 5751 5749 5747 5745 5742 5740 5737 5734 5731 5728 5725 5722 5719
5799 5797 5795 5793 5790 5787 5785 5783 5780 5777 5775 5773 5771 5769 5767 5765 5764 5762 5761 5760 5759 5758 5757 5756 5756 5755 5755 5754 5752 5751 5750 5748 5746 5744 5742 5739 5736 5734 5731 5728 5725 5722 5719 5715
5793 5790 5789 5787 5784 5780 5778 5775 5773 5770 5768 5767 5765 5764 5763 5760 5758 5756 5755 5755 5754 5753 5752 5751 5751 5751 5751 5750 5748 5748 5747 5745 5743 5741 5739 5736 5734 5731 5729 5726 5723 5719 5716 5712
5788 5784 5782 5779 5777 5774 5773 5771 5766 5764 5762 5761 5759 5758 5756 5754 5752 5751 5750 5749 5748 5748 5748 5748 5748 5747 5747 5746 5746 5745 5744 5743 5741 5738 5736 5733 5731 5729 5726 5723 5720 5717 5713 5710
5781 5779 5777 5772 5770 5768 5766 5762 5760 5758 5756 5755 5753 5752 5750 5749 5747 5746 5745 5744 5744 5743 5744 5744 5744 5744 5744 5743 5743 5742 5742 5740 5738 5736 5733 5731 5729 5726 5724 5721 5718 5714 5711 5708
5776 5774 5769 5766 5762 5760 5757 5755 5753 5752 5751 5749 5748 5746 5745 5744 5743 5742 5741 5740 5740 5740 5740 5741 5741 5741 5741 5741 5741 5740 5739 5738 5736 5734 5731 5729 5726 5724 5721 5718 5715 5712 5709 5705
5768 5766 5762 5759 5756 5753 5751 5749 5748 5747 5745 5743 5742 5741 5740 5739 5739 5739 5738 5738 5738 5738 5738 5738 5738 5738 5739 5739 5739 5738 5738 5736 5734 5732 5729 5727 5725 5722 5719 5717 5714 5710 5707 5703
5760 5759 5756 5753 5750 5748 5746 5744 5742 5741 5740 5739 5738 5737 5736 5735 5735 5735 5735 5735 5735 5735 5735 5736 5736 5736 5737 5737 5737 5737 5736 5734 5732 5730 5728 5726 5723 5721 5718 5716 5712 5709 5705 5701
5754 5751 5749 5747 5744 5742 5741 5739 5738 5737 5736 5735 5734 5733 5732 5732 5731 5731 5731 5732 5732 5733 5733 5734 5734 5735 5736 5736 5736 5735 5734 5733 5731 5729 5727 5725 5722 5720 5718 5715 5712 5708 5704 5699
5747 5745 5743 5741 5739 5737 5736 5734 5733 5732 5731 5731 5730 5729 5729 5729 5728 5728 5729 5729 5730 5731 5732 5732 5733 5734 5734 5735 5735 5734 5733 5732 5730 5728 5726 5724 5722 5719 5717 5714 5710 5707 5702 5698
5741 5739 5737 5736 5734 5732 5731 5730 5729 5728 5727 5727 5726 5726 5726 5726 5726 5726 5727 5728 5728 5729 5730 5731 5732 5733 5733 5734 5734 5733 5732 5731 5729 5728 5726 5723 5721 5718 5715 5712 5709 5705 5701 5696
5735 5733 5731 5730 5729 5728 5727 5726 5726 5725 5724 5724 5724 5724 5724 5724 5724 5724 5725 5726 5727 5728 5729 5730 5731 5732 5732 5733 5733 5732 5732 5731 5729 5727 5725 5723 5720 5717 5714 5711 5707 5703 5699 5694
5728 5727 5726 5725 5725 5724 5723 5723 5723 5722 5722 5722 5722 5722 5722 5722 5723 5723 5724 5725 5726 5727 5728 5729 5730 5731 5732 5732 5732 5732 5731 5730 5728 5727 5725 5722 5719 5717 5713 5710 5706 5702 5697 5693
5721 5721 5721 5721 5721 5720 5720 5720 5720 5720 5719 5719 5720 5720 5720 5721 5722 5723 5724 5725 5726 5727 5728 5729 5730 5731 5732 5732 5732 5731 5730 5729 5728 5726 5724 5721 5719 5716 5712 5709 5705 5700 5696 5691
5715 5715 5715 5715 5716 5716 5716 5717 5717 5717 5717 5717 5717 5718 5718 5719 5721 5722 5723 5724 5726 5727 5728 5729 5730 5731 5731 5731 5731 5731 5730 5729 5727 5725 5723 5721 5718 5715 5712 5708 5703 5699 5694 5689
5709 5709 5709 5710 5711 5712 5712 5713 5714 5714 5714 5715 5715 5716 5717 5718 5720 5721 5723 5724 5726 5727 5728 5729 5730 5730 5731 5731 5730 5730 5729 5728 5727 5725 5723 5720 5717 5714 5711 5707 5702 5698 5693 5687
5703 5704 5705 5706 5707 5708 5709 5709 5710 5711 5712 5712 5713 5715 5716 5718 5719 5721 5722 5724 5725 5726 5727 5728 5729 5730 5730 5730 5730 5729 5729 5728 5726 5724 5722 5720 5717 5714 5710 5706 5701 5697 5691 5686
5698 5699 5700 5702 5703 5704 5705 5706 5707 5708 5709 5710 5712 5713 5715 5717 5719 5720 5722 5723 5725 5726 5727 5728 5729 5730 5730 5730 5730 5729 5728 5727 5725 5724 5721 5719 5716 5713 5709 5705 5700 5695 5690 5685
5693 5694 5696 5698 5699 5700 5701 5703 5704 5705 5707 5708 5710 5712 5714 5716 5718 5720 5721 5723 5724 5725 5727 5728 5729 5730 5730 5730 5730 5729 5728 5727 5725 5723 5721 5718 5715 5712 5708 5704 5699 5694 5689 5683
5688 5690 5691 5693 5695 5696 5698 5700 5701 5703 5705 5706 5708 5711 5713 5715 5717 5719 5721 5723 5724 5726 5727 5728 5729 5730 5730 5730 5729 5729 5728 5726 5725 5722 5720 5717 5714 5711 5707 5703 5698 5693 5687 5681
5683 5685 5687 5689 5691 5693 5695 5696 5698 5700 5702 5705 5707 5709 5712 5714 5716 5718 5720 5722 5724 5725 5727 5728 5729 5729 5730 5729 5729 5728 5727 5726 5724 5722 5719 5716 5713 5710 5706 5701 5696 5691 5686 5680
5678 5680 5683 5685 5687 5689 5691 5693 5696 5698 5700 5703 5705 5708 5710 5713 5715 5717 5719 5721 5723 5725 5726 5727 5728 5729 5729 5729 5728 5727 5726 5725 5723 5721 5718 5715 5712 5709 5705 5700 5695 5690 5684 5679
5673 5676 5678 5681 5684 5686 5688 5691 5693 5696 5698 5701 5704 5707 5709 5712 5714 5716 5718 5720 5722 5724 5725 5726 5727 5728 5728 5728 5727 5727 5726 5724 5722 5720 5717 5714 5711 5707 5703 5698 5694 5688 5683 5677
5669 5672 5675 5678 5681 5683 5686 5688 5691 5694 5697 5700 5702 5705 5708 5711 5713 5715 5718 5720 5721 5723 5724 5726 5727 5727 5727 5727 5727 5726 5725 5723 5721 5719 5716 5713 5710 5706 5702 5697 5692 5687 5681 5676